Regional Weather Roundup
Issued by NWS State College, PA

Home | Current Version | Previous Version | Graphics & Text | Print | Product List | Glossary Off
Versions: 1 2 3 4 5 6 7 8 9 10 11 12 13 14 15 16 17 18 19 20 21 22 23 24 25 26 27 28 29 30 31 32 33 34 35 36 37 38 39 40 41 42 43 44 45 46 47 48 49 50

000
ASUS41 KCTP 210203
RWRCTP

REGIONAL WEATHER ROUNDUP
NATIONAL WEATHER SERVICE STATE COLLEGE PA
900 PM EST MON NOV 20 2017

Note: "fair" indicates few or no clouds below 12,000 feet with no
significant weather and/or obstructions to visibility.

* = STATION THAT DOES NOT REPORT PRECIPITATION /E.G. RAIN...SNOW...ETC/
    THUNDER OR FOG.

PAZ002>004-007>009-013>016-020>023-029>032-210300-
WESTERN PENNSYLVANIA

CITY           SKY/WX    TMP DP  RH WIND       PRES   REMARKS
ERIE           CLEAR     40  23  50 S21G29    29.93F
MEADVILLE      CLEAR     35  24  64 S12G22    29.99S
FRANKLIN*      CLEAR     33  22  63 S12       30.01F
NEW CASTLE     FAIR      37  23  56 VRB5      30.04S
BEAVER COUNTY  CLEAR    N/A N/A N/A S7        30.04F
BUTLER*        CLEAR     36  22  56 S7        30.05F
PITTSBURGH INT PTCLDY    38  21  50 S6        30.04F
PITTSBURGH     CLEAR     36  20  52 S12       30.05F
INDIANA*       CLEAR     34  25  69 SW6       30.10F
LATROBE        CLEAR     32  23  69 SW7       30.08F
WASHINGTON CO* CLEAR     37  21  52 S6        30.09F
$$

PAZ004>006-010>012-017>019-024>028-033>037-041-042-045-046-049>053-210300-
CENTRAL PENNSYLVANIA

CITY           SKY/WX    TMP DP  RH WIND       PRES   REMARKS
BRADFORD       CLEAR     33  23  66 S8        29.98F
DUBOIS         CLEAR     34  21  59 SW9       30.02F
CLEARFIELD     CLEAR     33  24  69 SW6       30.06S
JOHNSTOWN      CLEAR     35  21  56 SW12      30.05F
ALTOONA        CLEAR     38  24  57 S10       30.08F
STATE COLLEGE  CLEAR     36  23  60 W6        30.07S
WILLIAMSPORT   CLEAR     34  26  72 CALM      30.08S
SELINSGROVE    CLEAR     37  25  61 SW5       30.10S
FT INDIANTOWN  CLEAR     31  25  81 E3        30.12R
CAPITAL CITY   CLEAR     37  24  59 CALM      30.13R
HARRISBURG     CLEAR     43  25  49 SW6       30.12S
YORK           CLEAR     41  23  48 S7        30.13S
$$

PAZ038>040-043-044-047-048-054-055-060>062-067>071-210300-
EASTERN PENNSYLVANIA

CITY           SKY/WX    TMP DP  RH WIND       PRES   REMARKS
SCRANTON       CLEAR     39  24  55 SW7       30.05S
MOUNT POCONO   CLEAR     32  22  66 W7        30.03S
ALLENTOWN      CLEAR     36  23  59 SW7       30.11S
QUAKERTOWN*    CLEAR     32  25  74 CALM      30.13S
READING        CLEAR     36  25  64 CALM      30.13R
LANCASTER      CLEAR     35  25  66 CALM      30.14R
COATESVILLE    CLEAR     41  21  45 VRB6      30.14S
POTTSTOWN      CLEAR     41  21  44 W7        30.15S
BLUE BELL      CLEAR     36  25  64 CALM      30.16R
DOYLESTOWN     CLEAR     39  22  50 SW5       30.12S
WILLOW GROVE   NOT AVBL
NORTH PHILA    CLEAR     43  24  47 SW7       30.16S
PHILADELPHIA   CLEAR     41  27  57 S8        30.16S
$$



USA.gov is the U.S. government's official web portal to all federal, state and local government web resources and services.